Погода в Чарна-Белостоцке

Польша     53°18′04″N   23°17′11″E
темп.,
°C
ветер,
м/с
пор.,
м/с
влажн.,
%
обл.,
%
осадки,
мм/ч
давл.,
гПа
погр.,
м
25 февраля, чт
чт2501:00+4з3799100 0.0 1030170
04:00+4зюз369998 0.0 1029150
07:00+3юз259999 0.0 1029120
10:00+6юз359898 0.0 1028175
13:00+9юз369365 0.0 1028258
16:00+7юз37961 0.0 1026182
19:00+5ююз37951 0.0 1025159
22:00+5юз310910 0.0 1024211
26 февраля, пт
пт2601:00+4зюз39920 0.0 1024217
04:00+4зюз38978 0.0 1022164
07:00+5з4129729 0.0 1023495
10:00+7з5118199 0.0 1022713
13:00+8з61066100 0.0 1022969
16:00+7з5107188 0.0 1021931
19:00+5з5128094 0.0 1021989
22:00+5зсз51180100 0.0 10201051
27 февраля, сб
сб2701:00+4зсз51282100 0.1 1020867
04:00+4зсз61286100 0.0 1019798
07:00+3сз61187100 0.1 1020941
10:00+5сз7126867 0.0 10211136
13:00+7ссз7115533 0.0 10231379
16:00+5ссз5116211 0.0 10241144
19:00+2сз512766 0.0 1026647
22:000сз512830 0.0 1027554
28 февраля, вс
вс2801:000сз511850 0.0 1029460
04:00−1сз39890 0.0 1029358
07:00−1сз389118 0.0 1030381
10:00+2ссз367196 0.0 1030587
13:00+4ссз356398 0.0 1030940
16:00+3сз2673100 0.0 1031370
19:00+1ссз2491100 0.0 103291
22:000ссз269687 0.0 1034181
1 марта, пн
пн101:00+1ссз259765 0.0 1035237
04:00+2сз2697100 0.0 1035240
07:00+2сз379392 0.0 1036289
10:00+3сз3685100 0.0 1037429
13:00+6сз357187 0.0 1036543
16:00+6зсз257522 0.0 1036366
19:00+3зсз258840 0.0 1037114
22:00+2зсз249496 0.0 103893